Location: *
(50.9167°S, 179.4000°W)
Time: 20:52:47
(UTC+00:00)

Cosmos 1606 Rocket - Pass Details

Date: 03 March 2024
Orbit: 599 x 630 km, 82.5° (Epoch: 16 April)

Event Time Altitude Azimuth Distance (km) Brightness Sun altitude
Rises 16:19:40 0° 197° (SSW) 2,903 7.1 -11.6°
Reaches altitude 10° 16:22:00 10° 204° (SSW) 1,995 6.2 -11.3°
Maximum altitude 16:26:05 38° 272° (W) 953 4.1 -10.7°
Drops below altitude 10° 16:30:09 10° 339° (NNW) 1,985 5.7 -10.1°
Sets 16:32:29 0° 347° (NNW) 2,886 6.6 -9.8°
